Skip Page Navigation
NASA JPL Caltech
NASA Logo - Jet Propulsion Laboratory + View the NASA Portal
+ Center for Near-Earth Object Studies
JPL Home Earth Solar System Stars & Galaxies Technology
JPL Solar System Dynamics
BODIES ORBITS EPHEMERIDES TOOLS PHYSICAL DATA DISCOVERY FAQ SITE MAP
IMPORTANT: The SSD Announcement email list is now available. Major changes are coming in the near future, including possible hostname and/or URL changes. To be notified of such changes, subscribe to this email list.

Please visit this page for more details.


JPL Small-Body Database Browser
Search: [ help ]  
5094 Seryozha (1982 UT6)
Classification: Main-belt Asteroid          SPK-ID: 2005094
Ephemeris | Orbit Diagram | Orbital Elements | Mission Design | Physical Parameters | Discovery Circumstances | Close-Approach Data ]

[ show orbit diagram ]
Orbital Elements at Epoch 2459000.5 (2020-May-31.0) TDB
Reference: JPL 26 (heliocentric ecliptic J2000)
 Element Value Uncertainty (1-sigma)   Units 
e .08409964537482514 4.105e-08  
a 2.838894140865879 1.4519e-08 au
q 2.60014415036239 1.1978e-07 au
i 1.654662592663426 4.5754e-06 deg
node 357.7540971422263 0.00013458 deg
peri 349.0982609607166 0.00013666 deg
M 358.890648946283 2.4123e-05 deg
tp 2459005.883797593938
(2020-Jun-05.38379759)
0.00011708 TDB
period 1747.117945508606
4.78
1.3403e-05
3.67e-08
d
yr
n .2060536330277347 1.5807e-09 deg/d
Q 3.077644131369368 1.574e-08 au
  Orbit Determination Parameters
   # obs. used (total)      1748  
   data-arc span      24032 days (65.80 yr)  
   first obs. used      1953-10-31  
   last obs. used      2019-08-18  
   planetary ephem.      DE431  
   SB-pert. ephem.      SB431-N16  
   condition code      0  
   norm. resid. RMS      .51099  
   source      ORB  
   producer      Otto Matic  
   solution date      2019-Sep-24 00:48:59  

Additional Information
 Earth MOID = 1.59306 au 
 Jupiter MOID = 2.26627 au 
 T_jup = 3.304 
[ show covariance matrix ]

Ephemeris | Orbit Diagram | Orbital Elements | Mission Design | Physical Parameters | Discovery Circumstances | Close-Approach Data ]

Physical Parameter Table
Parameter Symbol Value Units Sigma Reference Notes
absolute magnitude H 13.1   n/a PDS3 (MPC 28113)  

5094 Seryozha (1982 UT6)          Discovered 1982-Oct-20 by Karachkina, L. G. at Nauchnyj
Reference: DISCOVERY.DBLast Updated: 2003-08-29

[ show close-approach data ]
Alternate Designations
 1982 UT6 = 1977 UF1 = 1980 GW 
Ephemeris | Orbit Diagram | Orbital Elements | Mission Design | Physical Parameters | Discovery Circumstances | Close-Approach Data ]
ABOUT SSD CREDITS/AWARDS PRIVACY/COPYRIGHT GLOSSARY LINKS
FirstGov 2020-Feb-20 17:55 UT
(server date/time)  
NASA Home Page
Site Manager:   Ryan S. Park
Webmaster  Alan B. Chamberlin